BSAT-4A

导读

BSAT-4A是由日本放送卫星公司(BSAT)定制的广播卫星,于2017年9月29日发射入轨,定位于东经110度地球静止轨道。卫星由空间系统/Loral制造,基于SSL 1300平台,装载24台Ku波段转发器,主要为日本提供高清和4K超高清广播电视服务,设计寿命15年,截至2026年仍在轨正常运行。

Basic Information
目录编号:
42951
目录名称:
BSAT-4A
国际标识:
2017-059B
轨道中心:
EARTH
卫星名称:
BSAT-4A
卫星全名:
--
卫星状态:
在轨 (已飞行3210 天)
发射日期:
2017-09-29 UTC
国别 :
日本 (JP)
星等 :
--
Orbit Information
数据来源 国际轨道数据 AOE轨道数据
星历时间 2026-07-13T20:16:31+0800
18小时前
查看轨道信息
2026-07-13T01:00:00+0800
1天前
查看轨道信息
半长轴 42164.616km 42165.457km
偏心率 0.0003394 0.0002951
轨道倾角 0.036° 0.035°
近地点辐角 56.728° 65.852°
升交点赤经 21.975° 19.813°
平近点角 146.639° 209.749°
近地点 35772.168km 35774.876km
远地点 35800.79km 35799.764km
周期 1436.091分钟 1436.134分钟
每日圈数 1.002722 1.002692
Detailed Information
使用方式:
暂无
2D Orbit Map
3D Orbit Map
Orbit Altitude Analysis Chart
Orbit Inclination Analysis Chart
Orbit Comprehensive Analysis Chart
View Comprehensive Chart